DW5858 Weather Reports


time (UTC)temp
F
wind
direction
speed
knots
gust
knots
rain 1hr
in
rain 24hr
in
rain mn
in
humidity
%
barometer
mb
20260906182503 88 76 0.9 3.5 0.00 0.00 0.00 67 1016.5
20260906182004 88 76 1.7 4.3 0.00 0.00 0.00 69 1016.5
20260906181505 88 76 0.9 4.3 0.00 0.00 0.00 67 1016.5
20260906181004 87 74 0.9 4.3 0.00 0.00 0.00 68 1016.6
20260906180006 87 76 1.7 4.3 0.00 0.00 0.00 70 1016.7
20260906175504 87 76 0.9 4.3 0.00 0.00 0.00 70 1016.7
20260906174504 86 77 0.9 3.5 0.00 0.00 0.00 73 1016.7
20260906174004 86 78 0.9 3.5 0.00 0.00 0.00 73 1016.7
20260906172504 84 76 0.9 3.5 0.00 0.00 0.00 76 1017.1
20260906172003 84 75 0.0 3.5 0.00 0.00 0.00 75 1017.0
20260906171504 84 74 0.0 2.6 0.00 0.00 0.00 76 1017.2
20260906170504 83 76 0.0 2.6 0.00 0.00 0.00 77 1017.1
20260906164505 82 77 0.0 0.9 0.00 0.00 0.00 79 1017.2
20260906164005 82 77 0.0 0.9 0.00 0.00 0.00 79 1017.1
20260906163504 81 77 0.0 0.9 0.00 0.00 0.00 79 1017.2
20260906162504 81 76 0.9 1.7 0.00 0.00 0.00 79 1017.4
20260906161505 81 77 0.9 2.6 0.00 0.00 0.00 80 1017.5
20260906161003 81 76 0.9 2.6 0.00 0.00 0.00 81 1017.6
20260906152504 80 76 0.9 2.6 0.00 0.00 0.00 81 1017.8
20260906152004 80 76 1.7 3.5 0.00 0.00 0.00 82 1018.0
20260906151505 80 76 2.6 4.3 0.00 0.00 0.00 82 1018.0
20260906145003 80 77 0.0 1.7 0.00 0.00 0.00 83 1017.2
20260906144003 80 76 0.9 7.0 0.00 0.00 0.00 83 1017.0
20260906140503 80 76 0.9 2.6 0.00 0.00 0.00 83 1017.0
20260906135504 80 76 0.9 2.6 0.00 0.00 0.00 83 1017.1
20260906134504 80 76 0.9 2.6 0.00 0.00 0.00 83 1017.0
20260906132504 79 76 0.9 7.0 0.00 0.00 0.00 84 1017.1
20260906131505 79 76 0.9 5.2 0.00 0.00 0.00 84 1017.1
20260906131003 79 76 0.9 5.2 0.00 0.00 0.00 84 1017.2
20260906130504 79 76 0.9 5.2 0.00 0.00 0.00 84 1017.1
20260906130005 79 76 0.9 3.5 0.00 0.00 0.00 84 1017.1
20260906125504 79 76 0.9 3.5 0.00 0.00 0.00 85 1017.0
20260906125004 78 76 0.9 3.5 0.00 0.00 0.00 85 1017.1
20260906123504 78 76 0.9 3.5 0.00 0.00 0.00 85 1016.9
20260906123005 78 76 0.9 2.6 0.00 0.00 0.00 85 1016.8
20260906121004 78 76 0.9 3.5 0.00 0.00 0.00 85 1016.7
20260906120504 78 77 0.0 2.6 0.00 0.00 0.00 85 1016.6
20260906120005 78 77 0.0 3.5 0.00 0.00 0.00 85 1016.5
20260906115504 78 76 0.0 3.5 0.00 0.00 0.00 86 1016.4
20260906115004 78 77 0.0 3.5 0.00 0.00 0.00 86 1016.4
20260906113005 78 77 0.0 1.7 0.00 0.00 0.00 86 1016.2
20260906111505 77 77 0.0 2.6 0.00 0.00 0.00 86 1016.2
20260906111003 77 77 0.0 2.6 0.00 0.00 0.00 87 1016.2
20260906110005 77 77 0.0 0.9 0.00 0.00 0.00 86 1016.2
20260906104505 77 77 0.0 0.9 0.00 0.00 0.00 85 1016.2
20260906104004 78 77 0.0 0.9 0.00 0.00 0.00 85 1016.2
20260906103005 78 77 0.0 0.9 0.00 0.00 0.00 86 1016.1
20260906102004 78 77 0.0 1.7 0.00 0.00 0.00 86 1016.0
20260906101004 78 77 0.0 2.6 0.00 0.00 0.00 86 1015.9
20260906100504 78 77 0.0 2.6 0.00 0.00 0.00 86 1015.8
20260906094003 78 0 0.0 0.0 0.00 0.00 0.00 84 1015.8
20260906093006 78 0 0.0 0.0 0.00 0.00 0.00 83 1015.9
20260906092005 78 77 0.0 0.9 0.00 0.00 0.00 83 1015.8
20260906091505 79 77 0.0 1.7 0.00 0.00 0.00 82 1015.9
20260906090503 79 77 0.0 0.9 0.00 0.00 0.00 82 1016.0
20260906090004 79 77 0.0 1.7 0.00 0.00 0.00 82 1016.0
20260906085503 79 77 0.0 1.7 0.00 0.00 0.00 82 1016.1
20260906084003 80 77 0.0 0.9 0.00 0.00 0.00 82 1016.0
20260906082503 80 76 0.0 1.7 0.00 0.00 0.00 82 1015.8
20260906082004 80 77 0.0 1.7 0.00 0.00 0.00 82 1015.8
20260906081505 80 77 0.0 0.9 0.00 0.00 0.00 82 1015.7
20260906081003 80 77 0.0 0.9 0.00 0.00 0.00 82 1015.8
20260906080503 80 77 0.0 0.9 0.00 0.00 0.00 82 1015.8
20260906074505 81 77 0.0 1.7 0.00 0.00 0.00 81 1015.7
20260906073504 81 77 0.0 0.9 0.00 0.00 0.00 81 1015.6
20260906072504 81 76 0.9 3.5 0.00 0.00 0.00 81 1015.6
20260906072003 81 76 0.0 3.5 0.00 0.00 0.00 80 1015.5
20260906071004 81 77 0.0 2.6 0.00 0.00 0.00 80 1015.6
20260906070503 81 77 0.0 2.6 0.00 0.00 0.00 80 1015.6
20260906064505 81 77 0.0 3.5 0.00 0.00 0.00 80 1015.7
20260906064004 81 77 0.0 2.6 0.00 0.00 0.00 81 1015.7
20260906063504 81 77 0.0 1.7 0.00 0.00 0.00 81 1015.7
20260906063004 81 77 0.0 1.7 0.00 0.00 0.00 81 1015.8
20260906053503 81 76 0.9 4.3 0.00 0.00 0.00 81 1015.8
20260906052503 82 77 0.9 4.3 0.00 0.00 0.00 81 1015.9
20260906051004 81 76 0.9 3.5 0.00 0.00 0.00 81 1016.0
20260906050504 81 76 0.9 3.5 0.00 0.00 0.00 82 1016.0
20260906043504 81 76 0.0 1.7 0.00 0.00 0.00 82 1015.8
20260906042504 81 77 0.0 1.7 0.00 0.00 0.00 82 1016.1
20260906041505 81 77 0.0 0.9 0.00 0.00 0.00 82 1016.1
20260906041005 81 77 0.0 0.9 0.00 0.00 0.00 81 1016.2
20260906040504 81 77 0.0 0.9 0.00 0.00 0.00 81 1016.2
20260906035503 81 77 0.0 0.9 0.00 0.00 0.00 81 1016.2
20260906034505 82 77 0.0 0.9 0.00 0.00 0.00 81 1016.2
20260906033504 82 77 0.0 0.9 0.00 0.00 0.00 80 1016.1
20260906033005 82 77 0.0 0.9 0.00 0.00 0.00 80 1016.1
20260906032503 82 77 0.0 0.9 0.00 0.00 0.00 80 1016.1
20260906031505 82 77 0.0 0.9 0.00 0.00 0.00 79 1016.1
20260906031003 82 77 0.0 0.9 0.00 0.00 0.00 79 1016.0
20260906030504 83 77 0.0 0.9 0.00 0.00 0.00 79 1016.0
20260906025004 83 77 0.0 0.9 0.00 0.00 0.00 79 1015.5
20260906024004 83 77 0.0 2.6 0.00 0.00 0.00 78 1015.4
20260906022003 83 77 0.0 0.9 0.00 0.00 0.00 77 1015.1
20260906021505 83 0 0.0 0.0 0.00 0.00 0.00 77 1015.1
20260906021004 83 0 0.0 0.0 0.00 0.00 0.00 76 1015.0
20260906015503 84 76 0.0 0.9 0.00 0.00 0.00 75 1014.8
20260906013005 86 0 0.0 0.0 0.00 0.00 0.00 73 1014.6
20260906012004 86 77 0.0 2.6 0.00 0.00 0.00 71 1014.5
20260906011505 87 76 0.9 2.6 0.00 0.00 0.00 71 1014.4
20260906010503 87 76 0.9 2.6 0.00 0.00 0.00 70 1014.3
20260906010005 87 76 0.9 2.6 0.00 0.00 0.00 70 1014.3
20260906005004 88 76 0.9 3.5 0.00 0.00 0.00 69 1014.3
20260906003504 89 76 0.9 2.6 0.00 0.00 0.00 68 1014.2
20260906003005 89 76 0.9 2.6 0.00 0.00 0.00 67 1014.1
20260906001506 90 76 0.9 2.6 0.00 0.00 0.00 66 1014.1
20260906001003 90 77 0.9 4.3 0.00 0.00 0.00 66 1014.0
20260906000005 90 76 0.9 3.5 0.00 0.00 0.00 65 1014.0
20260905235004 91 76 1.7 4.3 0.00 0.00 0.00 64 1014.1
20260905234004 91 76 1.7 4.3 0.00 0.00 0.00 63 1013.9
20260905232004 91 76 1.7 4.3 0.00 0.00 0.00 62 1013.8
20260905231505 91 77 1.7 4.3 0.00 0.00 0.00 61 1013.8
20260905230005 92 77 0.9 4.3 0.00 0.00 0.00 62 1013.8
20260905225503 92 76 1.7 4.3 0.00 0.00 0.00 61 1013.8
20260905223504 91 76 1.7 3.5 0.00 0.00 0.00 61 1013.8
20260905223005 91 76 0.9 4.3 0.00 0.00 0.00 60 1013.8
20260905222504 92 76 0.9 4.3 0.00 0.00 0.00 60 1013.8
20260905221004 92 78 0.9 4.3 0.00 0.00 0.00 59 1013.7
20260905213504 92 76 0.9 4.3 0.00 0.00 0.00 58 1013.5
20260905212503 93 76 1.7 7.8 0.00 0.00 0.00 58 1013.5
20260905211504 92 76 1.7 7.8 0.00 0.00 0.00 57 1013.7
20260905210005 92 77 2.6 9.6 0.00 0.00 0.00 57 1014.1
20260905205504 92 77 1.7 7.0 0.00 0.00 0.00 56 1014.1
20260905204505 91 77 1.7 9.6 0.00 0.00 0.00 57 1014.1
20260905195004 90 77 2.6 7.8 0.00 0.00 0.00 57 1015.3
20260905192004 89 79 2.6 7.0 0.00 0.00 0.00 58 1016.4
20260905190504 88 78 2.6 10.4 0.00 0.00 0.00 59 1016.7
20260905190005 89 78 1.7 7.8 0.00 0.00 0.00 58 1016.7